When you browse on this site, cookies collect data to enhance your experience and personalize the content and advertising you see.
Visit our Privacy Policy to learn more. By continuing to use the site, you agree to this use of cookies and data.
  • In United Kingdom
  • List of Countries
  • For 7 days
  • Water Temperature
  • Weather Map
  • Weather Widgets
  • user-avatar
    Login

    Hourly Weather Naiham

    Today, 6 June, Saturday

    Time Temperature Precipitation Wind Pressure Humidity
    00:00 +26°C° 0 mm 1 mps 702 mmHg 77%
    01:00 +26°C° 0 mm 1 mps 702 mmHg 75%
    02:00 +25°C° 0 mm 1 mps 702 mmHg 77%
    03:00 +25°C° 0 mm 1 mps 702 mmHg 78%
    04:00 +25°C° 0 mm 1 mps 702 mmHg 80%
    05:00 +26°C° 0 mm 1 mps 702 mmHg 78%
    06:00 +26°C° 0 mm 1 mps 702 mmHg 76%
    07:00 +27°C° 0 mm 1 mps 703 mmHg 71%
    08:00 +29°C° 0 mm 1 mps 703 mmHg 65%
    09:00 +31°C° 0 mm 1 mps 704 mmHg 59%
    10:00 +32°C° 0 mm 1 mps 704 mmHg 53%
    11:00 +34°C° 0 mm 1 mps 703 mmHg 49%
    12:00 +35°C° 0 mm 1 mps 703 mmHg 44%
    13:00 +38°C° 0 mm 2 mps 703 mmHg 37%
    14:00 +37°C° 0 mm 1 mps 702 mmHg 40%
    15:00 +36°C° 0 mm 1 mps 701 mmHg 42%
    16:00 +36°C° 0 mm 1 mps 701 mmHg 45%
    17:00 +34°C° 0 mm 1 mps 701 mmHg 51%
    18:00 +32°C° 0 mm 1 mps 701 mmHg 57%
    19:00 +30°C° 0 mm 1 mps 701 mmHg 62%
    20:00 +29°C° 0 mm 1 mps 702 mmHg 65%
    21:00 +28°C° 0 mm 1 mps 702 mmHg 69%
    22:00 +27°C° 0 mm 1 mps 702 mmHg 72%
    23:00 +27°C° 0 mm 1 mps 702 mmHg 74%

    Tomorrow, 7 June, Sunday

    Time Temperature Precipitation Wind Pressure Humidity
    00:00 +26°C° 0 mm 1 mps 702 mmHg 75%
    01:00 +26°C° 0 mm 1 mps 701 mmHg 77%
    02:00 +26°C° 0 mm 1 mps 701 mmHg 78%
    03:00 +25°C° 0 mm 1 mps 701 mmHg 80%
    04:00 +25°C° 0 mm 1 mps 701 mmHg 81%
    05:00 +26°C° 0 mm 1 mps 701 mmHg 79%
    06:00 +26°C° 0 mm 1 mps 701 mmHg 77%
    07:00 +27°C° 0 mm 1 mps 702 mmHg 75%
    08:00 +29°C° 0 mm 1 mps 702 mmHg 65%
    09:00 +32°C° 0 mm 2 mps 702 mmHg 56%
    10:00 +35°C° 0 mm 2 mps 702 mmHg 47%
    11:00 +36°C° 0 mm 2 mps 702 mmHg 43%
    12:00 +38°C° 0 mm 2 mps 702 mmHg 39%
    13:00 +39°C° 0 mm 2 mps 701 mmHg 36%
    14:00 +39°C° 0 mm 2 mps 700 mmHg 37%
    15:00 +39°C° 0 mm 2 mps 700 mmHg 38%
    16:00 +38°C° 0 mm 2 mps 699 mmHg 39%
    17:00 +36°C° 0 mm 2 mps 699 mmHg 47%
    18:00 +33°C° 0 mm 1 mps 699 mmHg 54%
    19:00 +30°C° 0 mm 1 mps 699 mmHg 62%
    20:00 +29°C° 0 mm 1 mps 700 mmHg 65%
    21:00 +28°C° 0 mm 1 mps 700 mmHg 69%
    22:00 +28°C° 0 mm 1 mps 701 mmHg 72%
    23:00 +27°C° 0 mm 1 mps 700 mmHg 74%

    Day after tomorrow, 8 June, Monday

    Time Temperature Precipitation Wind Pressure Humidity
    00:00 +26°C° 0 mm 1 mps 700 mmHg 76%
    01:00 +26°C° 0 mm 1 mps 700 mmHg 78%
    02:00 +26°C° 0 mm 1 mps 700 mmHg 79%
    03:00 +25°C° 0 mm 1 mps 700 mmHg 79%
    04:00 +25°C° 0 mm 1 mps 700 mmHg 79%
    05:00 +26°C° 0 mm 1 mps 700 mmHg 78%
    06:00 +26°C° 0 mm 1 mps 701 mmHg 76%
    07:00 +27°C° 0 mm 1 mps 701 mmHg 74%
    08:00 +29°C° 0 mm 1 mps 701 mmHg 65%
    09:00 +32°C° 0 mm 2 mps 702 mmHg 56%
    10:00 +35°C° 0 mm 2 mps 702 mmHg 47%
    11:00 +36°C° 0 mm 2 mps 702 mmHg 44%
    12:00 +37°C° 0 mm 2 mps 702 mmHg 41%
    13:00 +39°C° 0 mm 2 mps 701 mmHg 37%
    14:00 +37°C° 0 mm 1 mps 701 mmHg 40%
    15:00 +37°C° 0 mm 1 mps 700 mmHg 42%
    16:00 +35°C° 0 mm 0 mps 700 mmHg 44%
    17:00 +35°C° 0 mm 1 mps 700 mmHg 50%
    18:00 +33°C° 0 mm 1 mps 700 mmHg 55%
    19:00 +31°C° 0 mm 1 mps 700 mmHg 61%
    20:00 +30°C° 0.1 mm 1 mps 701 mmHg 66%
    21:00 +28°C° 0.1 mm 1 mps 701 mmHg 71%
    22:00 +27°C° 0.1 mm 1 mps 702 mmHg 76%
    23:00 +27°C° 0.1 mm 1 mps 702 mmHg 79%

    9 June, Tuesday

    Time Temperature Precipitation Wind Pressure Humidity
    00:00 +26°C° 0.1 mm 1 mps 701 mmHg 81%
    01:00 +25°C° 0.1 mm 1 mps 701 mmHg 84%
    02:00 +25°C° 0 mm 1 mps 701 mmHg 84%
    03:00 +25°C° 0 mm 1 mps 701 mmHg 85%
    04:00 +25°C° 0 mm 1 mps 701 mmHg 85%
    05:00 +26°C° 0 mm 1 mps 701 mmHg 83%
    06:00 +26°C° 0 mm 1 mps 702 mmHg 80%
    07:00 +27°C° 0 mm 1 mps 702 mmHg 78%
    08:00 +30°C° 0 mm 1 mps 703 mmHg 68%
    09:00 +32°C° 0 mm 1 mps 703 mmHg 59%
    10:00 +34°C° 0 mm 1 mps 704 mmHg 49%
    11:00 +35°C° 0 mm 1 mps 704 mmHg 47%
    12:00 +34°C° 0 mm 0 mps 703 mmHg 44%
    13:00 +35°C° 0 mm 0 mps 703 mmHg 42%
    14:00 +35°C° 0.1 mm 1 mps 703 mmHg 47%
    15:00 +34°C° 0.1 mm 1 mps 702 mmHg 53%
    16:00 +33°C° 0.1 mm 1 mps 701 mmHg 58%
    17:00 +31°C° 0.9 mm 1 mps 702 mmHg 68%
    18:00 +27°C° 0.9 mm 0 mps 702 mmHg 77%
    19:00 +25°C° 0.9 mm 0 mps 702 mmHg 86%
    20:00 +25°C° 1.2 mm 0 mps 702 mmHg 89%
    21:00 +24°C° 1.2 mm 0 mps 703 mmHg 92%
    22:00 +24°C° 1.2 mm 0 mps 703 mmHg 95%
    23:00 +24°C° 1 mm 0 mps 703 mmHg 96%

    10 June, Wednesday

    Time Temperature Precipitation Wind Pressure Humidity
    00:00 +23°C° 1 mm 0 mps 703 mmHg 96%
    01:00 +25°C° 1 mm 1 mps 702 mmHg 97%
    02:00 +25°C° 0 mm 1 mps 702 mmHg 97%
    03:00 +25°C° 0 mm 1 mps 702 mmHg 97%
    04:00 +23°C° 0 mm 0 mps 702 mmHg 96%
    05:00 +23°C° 0 mm 0 mps 702 mmHg 95%
    06:00 +23°C° 0 mm 0 mps 703 mmHg 94%
    07:00 +24°C° 0 mm 0 mps 703 mmHg 93%
    08:00 +25°C° 0.5 mm 0 mps 703 mmHg 88%
    09:00 +27°C° 0.5 mm 0 mps 704 mmHg 83%
    10:00 +29°C° 0.5 mm 0 mps 704 mmHg 78%
    11:00 +29°C° 0.4 mm 0 mps 704 mmHg 72%
    12:00 +30°C° 0.4 mm 0 mps 704 mmHg 66%
    13:00 +31°C° 0.4 mm 0 mps 703 mmHg 59%
    14:00 +31°C° 0.3 mm 0 mps 703 mmHg 60%
    15:00 +33°C° 0.3 mm 1 mps 702 mmHg 60%
    16:00 +33°C° 0.3 mm 1 mps 702 mmHg 61%
    17:00 +31°C° 0.7 mm 1 mps 702 mmHg 71%
    18:00 +29°C° 0.7 mm 1 mps 702 mmHg 81%
    19:00 +24°C° 0.7 mm 0 mps 702 mmHg 92%
    20:00 +24°C° 0.1 mm 0 mps 702 mmHg 92%
    21:00 +24°C° 0.1 mm 0 mps 703 mmHg 93%
    22:00 +24°C° 0.1 mm 0 mps 703 mmHg 94%
    23:00 +24°C° 0.1 mm 0 mps 703 mmHg 94%

    11 June, Thursday

    Time Temperature Precipitation Wind Pressure Humidity
    00:00 +23°C° 0.1 mm 0 mps 703 mmHg 95%
    01:00 +23°C° 0.1 mm 0 mps 702 mmHg 95%
    02:00 +23°C° 0.2 mm 0 mps 702 mmHg 96%
    03:00 +23°C° 0.2 mm 0 mps 702 mmHg 96%
    04:00 +22°C° 0.2 mm 0 mps 701 mmHg 97%
    05:00 +23°C° 0 mm 0 mps 702 mmHg 95%
    06:00 +23°C° 0 mm 0 mps 702 mmHg 94%
    07:00 +24°C° 0 mm 0 mps 702 mmHg 93%
    08:00 +26°C° 0.3 mm 0 mps 703 mmHg 83%
    09:00 +28°C° 0.3 mm 0 mps 703 mmHg 74%
    10:00 +30°C° 0.3 mm 0 mps 703 mmHg 64%
    11:00 +30°C° 0.4 mm 0 mps 703 mmHg 63%
    12:00 +30°C° 0.4 mm 0 mps 702 mmHg 62%
    13:00 +31°C° 0.4 mm 0 mps 702 mmHg 61%
    14:00 +30°C° 0.5 mm 0 mps 702 mmHg 63%
    15:00 +30°C° 0.5 mm 0 mps 701 mmHg 66%
    16:00 +30°C° 0.5 mm 0 mps 701 mmHg 69%
    17:00 +28°C° 0.2 mm 0 mps 700 mmHg 75%
    18:00 +26°C° 0.2 mm 0 mps 700 mmHg 82%
    19:00 +25°C° 0.2 mm 0 mps 700 mmHg 88%
    20:00 +24°C° 0.1 mm 0 mps 701 mmHg 89%
    21:00 +26°C° 0.1 mm 1 mps 701 mmHg 90%
    22:00 +25°C° 0.1 mm 1 mps 702 mmHg 91%
    23:00 +25°C° 0 mm 1 mps 701 mmHg 92%
    Show more